{"data":{"norad_id":53013,"epoch":"2026-05-25T03:14:26.199744Z","epoch_age_seconds":63057,"freshness":"FRESH","line1":"1 53013U 22076AD  26145.13502546  .00000321  00000+0  38247-4 0  9996","line2":"2 53013  53.2136 100.9432 0001184  77.0265 283.0859 15.08841740214521","mean_motion":15.0884174,"eccentricity":0.0001184,"inclination_deg":53.2136,"raan_deg":100.9432,"arg_perigee_deg":77.0265,"mean_anomaly_deg":283.0859,"bstar":3.8247e-5,"rev_number":21452,"period_min":95.437444618943,"perigee_km":538.91899407697,"apogee_km":540.55714689366,"semimajor_km":6917.8750704853,"source":"CELESTRAK","updated_at":"2026-05-25T13:38:17.279371Z"}}